KDDC

Dodge City Regional Airport

Airport
ICAO code
KDDC
IATA Code
DDC
Summary
ICAO Region
NAM
ICAO Territory
Location

Dodge City, Kansas

Serving
Dodge City
Elevation
2594 ft
Coordinates
37° 45' 42" N , 99° 57' 50" W
KCC
Airport CFIT
Altimeter Temperature Error Correction
Metar
KDDC 300943Z AUTO 33007KT 7SM OVC022 18/17 A3002 RMK AO2 LTG DSNT ALQDS RAE21 TSE23 PRESRR P0016 T01830172

Description

Dodge City Regional Airport is a public-use airport located 3 nm east of the central business district of Dodge City, in Ford County, Kansas.

Airport map

Aerial View

SKYbrary Partners:

Safety knowledge contributed by: